Year,Month,Day,Hour,Minute,Value (Times are PST for temperature in C)
2012,07,26,00,00,15.90
2012,07,26,00,01,15.80
2012,07,26,00,02,15.80
2012,07,26,00,03,15.80
2012,07,26,00,04,15.80
2012,07,26,00,05,15.80
2012,07,26,00,06,15.80
2012,07,26,00,07,15.80
2012,07,26,00,08,15.80
2012,07,26,00,09,15.80
2012,07,26,00,10,15.80
2012,07,26,00,11,15.70
2012,07,26,00,12,15.70
2012,07,26,00,13,15.70
2012,07,26,00,14,15.70
2012,07,26,00,15,15.70
2012,07,26,00,16,15.70
2012,07,26,00,17,15.70
2012,07,26,00,18,15.70
2012,07,26,00,19,15.60
2012,07,26,00,20,15.60
2012,07,26,00,21,15.60
2012,07,26,00,22,15.60
2012,07,26,00,23,15.60
2012,07,26,00,24,15.60
2012,07,26,00,25,15.60
2012,07,26,00,26,15.60
2012,07,26,00,27,15.60
2012,07,26,00,28,15.60
2012,07,26,00,29,15.60
2012,07,26,00,30,15.60
2012,07,26,00,31,15.60
2012,07,26,00,32,15.50
2012,07,26,00,33,15.50
2012,07,26,00,34,15.50
2012,07,26,00,35,15.50
2012,07,26,00,36,15.50
2012,07,26,00,37,15.50
2012,07,26,00,38,15.50
2012,07,26,00,39,15.50
2012,07,26,00,40,15.50
2012,07,26,00,41,15.40
2012,07,26,00,42,15.40
2012,07,26,00,43,15.40
2012,07,26,00,44,15.40
2012,07,26,00,45,15.40
2012,07,26,00,46,15.40
2012,07,26,00,47,15.40
2012,07,26,00,48,15.40
2012,07,26,00,49,15.40
2012,07,26,00,50,15.40
2012,07,26,00,51,15.30
2012,07,26,00,52,15.30
2012,07,26,00,53,15.30
2012,07,26,00,54,15.30
2012,07,26,00,55,15.30
2012,07,26,00,56,15.30
2012,07,26,00,57,15.30
2012,07,26,00,58,15.30
2012,07,26,00,59,15.30
2012,07,26,01,00,15.30
2012,07,26,01,01,15.30
2012,07,26,01,02,15.30
2012,07,26,01,03,15.30
2012,07,26,01,04,15.30
2012,07,26,01,05,15.30
2012,07,26,01,06,15.30
2012,07,26,01,07,15.30
2012,07,26,01,08,15.20
2012,07,26,01,09,15.20
2012,07,26,01,10,15.20
2012,07,26,01,11,15.20
2012,07,26,01,12,15.20
2012,07,26,01,13,15.20
2012,07,26,01,14,15.20
2012,07,26,01,15,15.20
2012,07,26,01,16,15.20
2012,07,26,01,17,15.20
2012,07,26,01,18,15.10
2012,07,26,01,19,15.10
2012,07,26,01,20,15.00
2012,07,26,01,21,15.00
2012,07,26,01,22,15.00
2012,07,26,01,23,15.00
2012,07,26,01,24,15.00
2012,07,26,01,25,15.00
2012,07,26,01,26,15.00
2012,07,26,01,27,15.00
2012,07,26,01,28,15.00
2012,07,26,01,29,15.00
2012,07,26,01,30,15.00
2012,07,26,01,31,15.00
2012,07,26,01,32,15.00
2012,07,26,01,33,15.00
2012,07,26,01,34,14.90
2012,07,26,01,35,14.90
2012,07,26,01,36,14.80
2012,07,26,01,37,14.80
2012,07,26,01,38,14.80
2012,07,26,01,39,14.80
2012,07,26,01,40,14.80
2012,07,26,01,41,14.80
2012,07,26,01,42,14.80
2012,07,26,01,43,14.70
2012,07,26,01,44,14.70
2012,07,26,01,45,14.80
2012,07,26,01,46,14.70
2012,07,26,01,47,14.70
2012,07,26,01,48,14.70
2012,07,26,01,49,14.70
2012,07,26,01,50,14.70
2012,07,26,01,51,14.70
2012,07,26,01,52,14.80
2012,07,26,01,53,14.70
2012,07,26,01,54,14.70
2012,07,26,01,55,14.70
2012,07,26,01,56,14.70
2012,07,26,01,57,14.70
2012,07,26,01,58,14.70
2012,07,26,01,59,14.70
2012,07,26,02,00,14.60
2012,07,26,02,01,14.60
2012,07,26,02,02,14.60
2012,07,26,02,03,14.60
2012,07,26,02,04,14.60
2012,07,26,02,05,14.50
2012,07,26,02,06,14.50
2012,07,26,02,07,14.50
2012,07,26,02,08,14.40
2012,07,26,02,09,14.40
2012,07,26,02,10,14.40
2012,07,26,02,11,14.40
2012,07,26,02,12,14.40
2012,07,26,02,13,14.40
2012,07,26,02,14,14.40
2012,07,26,02,15,14.40
2012,07,26,02,16,14.40
2012,07,26,02,17,14.30
2012,07,26,02,18,14.30
2012,07,26,02,19,14.30
2012,07,26,02,20,14.30
2012,07,26,02,21,14.30
2012,07,26,02,22,14.30
2012,07,26,02,23,14.30
2012,07,26,02,24,14.30
2012,07,26,02,25,14.30
2012,07,26,02,26,14.30
2012,07,26,02,27,14.30
2012,07,26,02,28,14.30
2012,07,26,02,29,14.30
2012,07,26,02,30,14.30
2012,07,26,02,31,14.30
2012,07,26,02,32,14.30
2012,07,26,02,33,14.30
2012,07,26,02,34,14.30
2012,07,26,02,35,14.30
2012,07,26,02,36,14.20
2012,07,26,02,37,14.20
2012,07,26,02,38,14.20
2012,07,26,02,39,14.20
2012,07,26,02,40,14.20
2012,07,26,02,41,14.20
2012,07,26,02,42,14.20
2012,07,26,02,43,14.20
2012,07,26,02,44,14.20
2012,07,26,02,45,14.10
2012,07,26,02,46,14.10
2012,07,26,02,47,14.10
2012,07,26,02,48,14.10
2012,07,26,02,49,14.10
2012,07,26,02,50,14.10
2012,07,26,02,51,14.10
2012,07,26,02,52,14.10
2012,07,26,02,53,14.10
2012,07,26,02,54,14.10
2012,07,26,02,55,14.10
2012,07,26,02,56,14.00
2012,07,26,02,57,14.00
2012,07,26,02,58,14.00
2012,07,26,02,59,14.00
2012,07,26,03,00,14.00
2012,07,26,03,01,13.90
2012,07,26,03,02,13.90
2012,07,26,03,03,13.90
2012,07,26,03,04,13.90
2012,07,26,03,05,13.90
2012,07,26,03,06,13.90
2012,07,26,03,07,13.80
2012,07,26,03,08,13.80
2012,07,26,03,09,13.80
2012,07,26,03,10,13.80
2012,07,26,03,11,13.80
2012,07,26,03,12,13.80
2012,07,26,03,13,13.80
2012,07,26,03,14,13.80
2012,07,26,03,15,13.80
2012,07,26,03,16,13.80
2012,07,26,03,17,13.80
2012,07,26,03,18,13.80
2012,07,26,03,19,13.70
2012,07,26,03,20,13.70
2012,07,26,03,21,13.70
2012,07,26,03,22,13.70
2012,07,26,03,23,13.70
2012,07,26,03,24,13.70
2012,07,26,03,25,13.70
2012,07,26,03,26,13.70
2012,07,26,03,27,13.70
2012,07,26,03,28,13.70
2012,07,26,03,29,13.70
2012,07,26,03,30,13.70
2012,07,26,03,31,13.60
2012,07,26,03,32,13.60
2012,07,26,03,33,13.60
2012,07,26,03,34,13.60
2012,07,26,03,35,13.60
2012,07,26,03,36,13.60
2012,07,26,03,37,13.60
2012,07,26,03,38,13.60
2012,07,26,03,39,13.60
2012,07,26,03,40,13.60
2012,07,26,03,41,13.60
2012,07,26,03,42,13.60
2012,07,26,03,43,13.60
2012,07,26,03,44,13.50
2012,07,26,03,45,13.50
2012,07,26,03,46,13.50
2012,07,26,03,47,13.50
2012,07,26,03,48,13.50
2012,07,26,03,49,13.40
2012,07,26,03,50,13.40
2012,07,26,03,51,13.40
2012,07,26,03,52,13.40
2012,07,26,03,53,13.40
2012,07,26,03,54,13.40
2012,07,26,03,55,13.30
2012,07,26,03,56,13.30
2012,07,26,03,57,13.30
2012,07,26,03,58,13.30
2012,07,26,03,59,13.30
2012,07,26,04,00,13.30
2012,07,26,04,01,13.30
2012,07,26,04,02,13.30
2012,07,26,04,03,13.30
2012,07,26,04,04,13.30
2012,07,26,04,05,13.20
2012,07,26,04,06,13.20
2012,07,26,04,07,13.20
2012,07,26,04,08,13.20
2012,07,26,04,09,13.20
2012,07,26,04,10,13.20
2012,07,26,04,11,13.20
2012,07,26,04,12,13.20
2012,07,26,04,13,13.20
2012,07,26,04,14,13.10
2012,07,26,04,15,13.10
2012,07,26,04,16,13.10
2012,07,26,04,17,13.10
2012,07,26,04,18,13.10
2012,07,26,04,19,13.10
2012,07,26,04,20,13.10
2012,07,26,04,21,13.10
2012,07,26,04,22,13.10
2012,07,26,04,23,13.10
2012,07,26,04,24,13.10
2012,07,26,04,25,13.10
2012,07,26,04,26,13.10
2012,07,26,04,27,13.10
2012,07,26,04,28,13.10
2012,07,26,04,29,13.10
2012,07,26,04,30,13.10
2012,07,26,04,31,13.10
2012,07,26,04,32,13.10
2012,07,26,04,33,13.10
2012,07,26,04,34,13.10
2012,07,26,04,35,13.10
2012,07,26,04,36,13.10
2012,07,26,04,37,13.10
2012,07,26,04,38,13.10
2012,07,26,04,39,13.10
2012,07,26,04,40,13.10
2012,07,26,04,41,13.10
2012,07,26,04,42,13.10
2012,07,26,04,43,13.10
2012,07,26,04,44,13.10
2012,07,26,04,45,13.10
2012,07,26,04,46,13.10
2012,07,26,04,47,13.00
2012,07,26,04,48,13.00
2012,07,26,04,49,13.00
2012,07,26,04,50,13.00
2012,07,26,04,51,12.90
2012,07,26,04,52,12.90
2012,07,26,04,53,12.90
2012,07,26,04,54,12.90
2012,07,26,04,55,12.90
2012,07,26,04,56,12.80
2012,07,26,04,57,12.80
2012,07,26,04,58,12.80
2012,07,26,04,59,12.80
2012,07,26,05,00,12.80
2012,07,26,05,01,12.80
2012,07,26,05,02,12.80
2012,07,26,05,03,12.80
2012,07,26,05,04,12.80
2012,07,26,05,05,12.80
2012,07,26,05,06,12.80
2012,07,26,05,07,12.80
2012,07,26,05,08,12.80
2012,07,26,05,09,12.80
2012,07,26,05,10,12.80
2012,07,26,05,11,12.80
2012,07,26,05,12,12.80
2012,07,26,05,13,12.80
2012,07,26,05,14,12.80
2012,07,26,05,15,12.80
2012,07,26,05,16,12.80
2012,07,26,05,17,12.80
2012,07,26,05,18,12.80
2012,07,26,05,19,12.80
2012,07,26,05,20,12.80
2012,07,26,05,21,12.80
2012,07,26,05,22,12.80
2012,07,26,05,23,12.80
2012,07,26,05,24,12.80
2012,07,26,05,25,12.70
2012,07,26,05,26,12.70
2012,07,26,05,27,12.70
2012,07,26,05,28,12.70
2012,07,26,05,29,12.70
2012,07,26,05,30,12.70
2012,07,26,05,31,12.70
2012,07,26,05,32,12.70
2012,07,26,05,33,12.70
2012,07,26,05,34,12.70
2012,07,26,05,35,12.70
2012,07,26,05,36,12.70
2012,07,26,05,37,12.60
2012,07,26,05,38,12.60
2012,07,26,05,39,12.60
2012,07,26,05,40,12.60
2012,07,26,05,41,12.60
2012,07,26,05,42,12.60
2012,07,26,05,43,12.60
2012,07,26,05,44,12.60
2012,07,26,05,45,12.50
2012,07,26,05,46,12.50
2012,07,26,05,47,12.50
2012,07,26,05,48,12.60
2012,07,26,05,49,12.60
2012,07,26,05,50,12.60
2012,07,26,05,51,12.60
2012,07,26,05,52,12.60
2012,07,26,05,53,12.60
2012,07,26,05,54,12.60
2012,07,26,05,55,12.60
2012,07,26,05,56,12.60
2012,07,26,05,57,12.60
2012,07,26,05,58,12.60
2012,07,26,05,59,12.60
2012,07,26,06,00,12.60
2012,07,26,06,01,12.60
2012,07,26,06,02,12.60
2012,07,26,06,03,12.60
2012,07,26,06,04,12.60
2012,07,26,06,05,12.60
2012,07,26,06,06,12.60
2012,07,26,06,07,12.60
2012,07,26,06,08,12.60
2012,07,26,06,09,12.60
2012,07,26,06,10,12.60
2012,07,26,06,11,12.60
2012,07,26,06,12,12.60
2012,07,26,06,13,12.50
2012,07,26,06,14,12.50
2012,07,26,06,15,12.50
2012,07,26,06,16,12.50
2012,07,26,06,17,12.50
2012,07,26,06,18,12.50
2012,07,26,06,19,12.50
2012,07,26,06,20,12.50
2012,07,26,06,21,12.50
2012,07,26,06,22,12.50
2012,07,26,06,23,12.50
2012,07,26,06,24,12.50
2012,07,26,06,25,12.50
2012,07,26,06,26,12.50
2012,07,26,06,27,12.50
2012,07,26,06,28,12.50
2012,07,26,06,29,12.50
2012,07,26,06,30,12.50
2012,07,26,06,31,12.50
2012,07,26,06,32,12.50
2012,07,26,06,33,12.50
2012,07,26,06,34,12.50
2012,07,26,06,35,12.50
2012,07,26,06,36,12.50
2012,07,26,06,37,12.50
2012,07,26,06,38,12.50
2012,07,26,06,39,12.50
2012,07,26,06,40,12.50
2012,07,26,06,41,12.50
2012,07,26,06,42,12.60
2012,07,26,06,43,12.60
2012,07,26,06,44,12.60
2012,07,26,06,45,12.60
2012,07,26,06,46,12.60
2012,07,26,06,47,12.60
2012,07,26,06,48,12.70
2012,07,26,06,49,12.70
2012,07,26,06,50,12.70
2012,07,26,06,51,12.70
2012,07,26,06,52,12.80
2012,07,26,06,53,12.80
2012,07,26,06,54,12.80
2012,07,26,06,55,12.80
2012,07,26,06,56,12.80
2012,07,26,06,57,12.80
2012,07,26,06,58,12.90
2012,07,26,06,59,12.90
2012,07,26,07,00,12.90
2012,07,26,07,01,13.00
2012,07,26,07,02,13.00
2012,07,26,07,03,13.00
2012,07,26,07,04,13.10
2012,07,26,07,05,13.10
2012,07,26,07,06,13.20
2012,07,26,07,07,13.30
2012,07,26,07,08,13.40
2012,07,26,07,09,13.40
2012,07,26,07,10,13.50
2012,07,26,07,11,13.60
2012,07,26,07,12,13.60
2012,07,26,07,13,13.70
2012,07,26,07,14,13.70
2012,07,26,07,15,13.70
2012,07,26,07,16,13.70
2012,07,26,07,17,13.80
2012,07,26,07,18,13.80
2012,07,26,07,19,13.80
2012,07,26,07,20,13.80
2012,07,26,07,21,13.80
2012,07,26,07,22,13.90
2012,07,26,07,23,13.90
2012,07,26,07,24,14.00
2012,07,26,07,25,14.00
2012,07,26,07,26,14.00
2012,07,26,07,27,14.10
2012,07,26,07,28,14.10
2012,07,26,07,29,14.20
2012,07,26,07,30,14.20
2012,07,26,07,31,14.30
2012,07,26,07,32,14.30
2012,07,26,07,33,14.30
2012,07,26,07,34,14.40
2012,07,26,07,35,14.50
2012,07,26,07,36,14.50
2012,07,26,07,37,14.60
2012,07,26,07,38,14.70
2012,07,26,07,39,14.80
2012,07,26,07,40,14.80
2012,07,26,07,41,14.90
2012,07,26,07,42,15.00
2012,07,26,07,43,15.00
2012,07,26,07,44,15.00
2012,07,26,07,45,15.00
2012,07,26,07,46,15.10
2012,07,26,07,47,15.20
2012,07,26,07,48,15.20
2012,07,26,07,49,15.30
2012,07,26,07,50,15.40
2012,07,26,07,51,15.50
2012,07,26,07,52,15.60
2012,07,26,07,53,15.70
2012,07,26,07,54,15.80
2012,07,26,07,55,15.90
2012,07,26,07,56,16.00
2012,07,26,07,57,16.10
2012,07,26,07,58,16.20
2012,07,26,07,59,16.30
2012,07,26,08,00,16.40
2012,07,26,08,01,16.40
2012,07,26,08,02,16.50
2012,07,26,08,03,16.60
2012,07,26,08,04,16.70
2012,07,26,08,05,16.80
2012,07,26,08,06,16.90
2012,07,26,08,07,16.90
2012,07,26,08,08,17.00
2012,07,26,08,09,17.10
2012,07,26,08,10,17.10
2012,07,26,08,11,17.20
2012,07,26,08,12,17.20
2012,07,26,08,13,17.30
2012,07,26,08,14,17.30
2012,07,26,08,15,17.40
2012,07,26,08,16,17.40
2012,07,26,08,17,17.40
2012,07,26,08,18,17.50
2012,07,26,08,19,17.60
2012,07,26,08,20,17.60
2012,07,26,08,21,17.70
2012,07,26,08,22,17.70
2012,07,26,08,23,17.80
2012,07,26,08,24,17.80
2012,07,26,08,25,17.90
2012,07,26,08,26,17.90
2012,07,26,08,27,18.00
2012,07,26,08,28,18.10
2012,07,26,08,29,18.20
2012,07,26,08,30,18.30
2012,07,26,08,31,18.40
2012,07,26,08,32,18.40
2012,07,26,08,33,18.50
2012,07,26,08,34,18.60
2012,07,26,08,35,18.60
2012,07,26,08,36,18.70
2012,07,26,08,37,18.70
2012,07,26,08,38,18.80
2012,07,26,08,39,18.80
2012,07,26,08,40,18.80
2012,07,26,08,41,18.80
2012,07,26,08,42,18.90
2012,07,26,08,43,18.90
2012,07,26,08,44,18.90
2012,07,26,08,45,19.00
2012,07,26,08,46,19.10
2012,07,26,08,47,19.10
2012,07,26,08,48,19.20
2012,07,26,08,49,19.20
2012,07,26,08,50,19.20
2012,07,26,08,51,19.30
2012,07,26,08,52,19.30
2012,07,26,08,53,19.30
2012,07,26,08,54,19.30
2012,07,26,08,55,19.30
2012,07,26,08,56,19.30
2012,07,26,08,57,19.30
2012,07,26,08,58,19.40
2012,07,26,08,59,19.40
2012,07,26,09,00,19.40
2012,07,26,09,01,19.50
2012,07,26,09,02,19.50
2012,07,26,09,03,19.50
2012,07,26,09,04,19.50
2012,07,26,09,05,19.50
2012,07,26,09,06,19.50
2012,07,26,09,07,19.50
2012,07,26,09,08,19.50
2012,07,26,09,09,19.50
2012,07,26,09,10,19.50
2012,07,26,09,11,19.60
2012,07,26,09,12,19.70
2012,07,26,09,13,19.80
2012,07,26,09,14,19.90
2012,07,26,09,15,20.00
2012,07,26,09,16,20.00
2012,07,26,09,17,20.10
2012,07,26,09,18,20.10
2012,07,26,09,19,20.20
2012,07,26,09,20,20.20
2012,07,26,09,21,20.30
2012,07,26,09,22,20.30
2012,07,26,09,23,20.30
2012,07,26,09,24,20.30
2012,07,26,09,25,20.20
2012,07,26,09,26,20.20
2012,07,26,09,27,20.20
2012,07,26,09,28,20.10
2012,07,26,09,29,20.10
2012,07,26,09,30,20.10
2012,07,26,09,31,20.10
2012,07,26,09,32,20.20
2012,07,26,09,33,20.20
2012,07,26,09,34,20.20
2012,07,26,09,35,20.30
2012,07,26,09,36,20.40
2012,07,26,09,37,20.50
2012,07,26,09,38,20.60
2012,07,26,09,39,20.70
2012,07,26,09,40,20.70
2012,07,26,09,41,20.70
2012,07,26,09,42,20.70
2012,07,26,09,43,20.70
2012,07,26,09,44,20.70
2012,07,26,09,45,20.70
2012,07,26,09,46,20.70
2012,07,26,09,47,20.80
2012,07,26,09,48,20.90
2012,07,26,09,49,21.00
2012,07,26,09,50,21.00
2012,07,26,09,51,20.90
2012,07,26,09,52,20.90
2012,07,26,09,53,20.90
2012,07,26,09,54,21.00
2012,07,26,09,55,21.00
2012,07,26,09,56,21.00
2012,07,26,09,57,21.00
2012,07,26,09,58,21.10
2012,07,26,09,59,21.20
2012,07,26,10,00,21.30
2012,07,26,10,01,21.40
2012,07,26,10,02,21.40
2012,07,26,10,03,21.30
2012,07,26,10,04,21.20
2012,07,26,10,05,21.20
2012,07,26,10,06,21.10
2012,07,26,10,07,21.10
2012,07,26,10,08,21.10
2012,07,26,10,09,21.10
2012,07,26,10,10,21.10
2012,07,26,10,11,21.20
2012,07,26,10,12,21.20
2012,07,26,10,13,21.20
2012,07,26,10,14,21.30
2012,07,26,10,15,21.40
2012,07,26,10,16,21.40
2012,07,26,10,17,21.40
2012,07,26,10,18,21.40
2012,07,26,10,19,21.40
2012,07,26,10,20,21.40
2012,07,26,10,21,21.40
2012,07,26,10,22,21.40
2012,07,26,10,23,21.50
2012,07,26,10,24,21.40
2012,07,26,10,25,21.30
2012,07,26,10,26,21.30
2012,07,26,10,27,21.40
2012,07,26,10,28,21.30
2012,07,26,10,29,21.30
2012,07,26,10,30,21.20
2012,07,26,10,31,21.20
2012,07,26,10,32,21.30
2012,07,26,10,33,21.40
2012,07,26,10,34,21.40
2012,07,26,10,35,21.50
2012,07,26,10,36,21.60
2012,07,26,10,37,21.70
2012,07,26,10,38,21.70
2012,07,26,10,39,21.60
2012,07,26,10,40,21.50
2012,07,26,10,41,21.50
2012,07,26,10,42,21.40
2012,07,26,10,43,21.40
2012,07,26,10,44,21.40
2012,07,26,10,45,21.50
2012,07,26,10,46,21.50
2012,07,26,10,47,21.60
2012,07,26,10,48,21.70
2012,07,26,10,49,21.70
2012,07,26,10,50,21.60
2012,07,26,10,51,21.50
2012,07,26,10,52,21.40
2012,07,26,10,53,21.40
2012,07,26,10,54,21.30
2012,07,26,10,55,21.30
2012,07,26,10,56,21.30
2012,07,26,10,57,21.20
2012,07,26,10,58,21.30
2012,07,26,10,59,21.30
2012,07,26,11,00,21.40
2012,07,26,11,01,21.60
2012,07,26,11,02,21.70
2012,07,26,11,03,21.80
2012,07,26,11,04,21.90
2012,07,26,11,05,22.00
2012,07,26,11,06,22.10
2012,07,26,11,07,22.10
2012,07,26,11,08,22.10
2012,07,26,11,09,21.90
2012,07,26,11,10,21.80
2012,07,26,11,11,21.70
2012,07,26,11,12,21.60
2012,07,26,11,13,21.50
2012,07,26,11,14,21.40
2012,07,26,11,15,21.30
2012,07,26,11,16,21.40
2012,07,26,11,17,21.40
2012,07,26,11,18,21.50
2012,07,26,11,19,21.60
2012,07,26,11,20,21.60
2012,07,26,11,21,21.50
2012,07,26,11,22,21.50
2012,07,26,11,23,21.50
2012,07,26,11,24,21.40
2012,07,26,11,25,21.40
2012,07,26,11,26,21.40
2012,07,26,11,27,21.40
2012,07,26,11,28,21.30
2012,07,26,11,29,21.20
2012,07,26,11,30,21.20
2012,07,26,11,31,21.10
2012,07,26,11,32,21.20
2012,07,26,11,33,21.10
2012,07,26,11,34,21.10
2012,07,26,11,35,21.20
2012,07,26,11,36,21.30
2012,07,26,11,37,21.40
2012,07,26,11,38,21.50
2012,07,26,11,39,21.60
2012,07,26,11,40,21.60
2012,07,26,11,41,21.60
2012,07,26,11,42,21.50
2012,07,26,11,43,21.50
2012,07,26,11,44,21.50
2012,07,26,11,45,21.40
2012,07,26,11,46,21.40
2012,07,26,11,47,21.30
2012,07,26,11,48,21.30
2012,07,26,11,49,21.40
2012,07,26,11,50,21.30
2012,07,26,11,51,21.30
2012,07,26,11,52,21.40
2012,07,26,11,53,21.30
2012,07,26,11,54,21.30
2012,07,26,11,55,21.30
2012,07,26,11,56,21.30
2012,07,26,11,57,21.40
2012,07,26,11,58,21.50
2012,07,26,11,59,21.60
2012,07,26,12,00,21.70
2012,07,26,12,01,21.70
2012,07,26,12,02,21.70
2012,07,26,12,03,21.70
2012,07,26,12,04,21.70
2012,07,26,12,05,21.60
2012,07,26,12,06,21.50
2012,07,26,12,07,21.50
2012,07,26,12,08,21.50
2012,07,26,12,09,21.70
2012,07,26,12,10,21.80
2012,07,26,12,11,21.90
2012,07,26,12,12,22.10
2012,07,26,12,13,22.20
2012,07,26,12,14,22.10
2012,07,26,12,15,22.00
2012,07,26,12,16,21.90
2012,07,26,12,17,21.90
2012,07,26,12,18,21.90
2012,07,26,12,19,21.90
2012,07,26,12,20,21.80
2012,07,26,12,21,21.80
2012,07,26,12,22,21.90
2012,07,26,12,23,21.90
2012,07,26,12,24,22.00
2012,07,26,12,25,22.00
2012,07,26,12,26,22.00
2012,07,26,12,27,21.90
2012,07,26,12,28,21.90
2012,07,26,12,29,21.90
2012,07,26,12,30,21.90
2012,07,26,12,31,21.90
2012,07,26,12,32,22.00
2012,07,26,12,33,22.10
2012,07,26,12,34,22.10
2012,07,26,12,35,22.20
2012,07,26,12,36,22.20
2012,07,26,12,37,22.20
2012,07,26,12,38,22.20
2012,07,26,12,39,22.10
2012,07,26,12,40,22.00
2012,07,26,12,41,22.00
2012,07,26,12,42,22.00
2012,07,26,12,43,22.20
2012,07,26,12,44,22.20
2012,07,26,12,45,22.20
2012,07,26,12,46,22.20
2012,07,26,12,47,22.30
2012,07,26,12,48,22.40
2012,07,26,12,49,22.60
2012,07,26,12,50,22.70
2012,07,26,12,51,22.80
2012,07,26,12,52,23.00
2012,07,26,12,53,23.10
2012,07,26,12,54,23.20
2012,07,26,12,55,23.30
2012,07,26,12,56,23.40
2012,07,26,12,57,23.50
2012,07,26,12,58,23.50
2012,07,26,12,59,23.60
2012,07,26,13,00,23.70
2012,07,26,13,01,23.70
2012,07,26,13,02,23.70
2012,07,26,13,03,23.70
2012,07,26,13,04,23.60
2012,07,26,13,05,23.40
2012,07,26,13,06,23.30
2012,07,26,13,07,23.30
2012,07,26,13,08,23.30
2012,07,26,13,09,23.40
2012,07,26,13,10,23.40
2012,07,26,13,11,23.50
2012,07,26,13,12,23.40
2012,07,26,13,13,23.40
2012,07,26,13,14,23.50
2012,07,26,13,15,23.50
2012,07,26,13,16,23.60
2012,07,26,13,17,23.70
2012,07,26,13,18,23.80
2012,07,26,13,19,23.80
2012,07,26,13,20,23.80
2012,07,26,13,21,23.70
2012,07,26,13,22,23.60
2012,07,26,13,23,23.60
2012,07,26,13,24,23.70
2012,07,26,13,25,23.70
2012,07,26,13,26,23.80
2012,07,26,13,27,23.90
2012,07,26,13,28,24.00
2012,07,26,13,29,24.10
2012,07,26,13,30,24.20
2012,07,26,13,31,24.10
2012,07,26,13,32,24.00
2012,07,26,13,33,24.10
2012,07,26,13,34,24.20
2012,07,26,13,35,24.20
2012,07,26,13,36,24.20
2012,07,26,13,37,24.20
2012,07,26,13,38,24.20
2012,07,26,13,39,24.20
2012,07,26,13,40,24.20
2012,07,26,13,41,24.20
2012,07,26,13,42,24.30
2012,07,26,13,43,24.40
2012,07,26,13,44,24.40
2012,07,26,13,45,24.40
2012,07,26,13,46,24.50
2012,07,26,13,47,24.60
2012,07,26,13,48,24.70
2012,07,26,13,49,24.70
2012,07,26,13,50,24.70
2012,07,26,13,51,24.60
2012,07,26,13,52,24.40
2012,07,26,13,53,24.20
2012,07,26,13,54,24.20
2012,07,26,13,55,24.20
2012,07,26,13,56,24.20
2012,07,26,13,57,24.20
2012,07,26,13,58,24.20
2012,07,26,13,59,24.30
2012,07,26,14,00,24.30
2012,07,26,14,01,24.10
2012,07,26,14,02,24.10
2012,07,26,14,03,24.10
2012,07,26,14,04,24.20
2012,07,26,14,05,24.30
2012,07,26,14,06,24.40
2012,07,26,14,07,24.50
2012,07,26,14,08,24.50
2012,07,26,14,09,24.60
2012,07,26,14,10,24.60
2012,07,26,14,11,24.70
2012,07,26,14,12,24.60
2012,07,26,14,13,24.60
2012,07,26,14,14,24.70
2012,07,26,14,15,24.60
2012,07,26,14,16,24.60
2012,07,26,14,17,24.60
2012,07,26,14,18,24.60
2012,07,26,14,19,24.60
2012,07,26,14,20,24.50
2012,07,26,14,21,24.60
2012,07,26,14,22,24.60
2012,07,26,14,23,24.70
2012,07,26,14,24,24.80
2012,07,26,14,25,24.90
2012,07,26,14,26,25.00
2012,07,26,14,27,24.90
2012,07,26,14,28,24.80
2012,07,26,14,29,24.70
2012,07,26,14,30,24.70
2012,07,26,14,31,24.70
2012,07,26,14,32,24.60
2012,07,26,14,33,24.60
2012,07,26,14,34,24.60
2012,07,26,14,35,24.70
2012,07,26,14,36,24.70
2012,07,26,14,37,24.60
2012,07,26,14,38,24.50
2012,07,26,14,39,24.50
2012,07,26,14,40,24.60
2012,07,26,14,41,24.60
2012,07,26,14,42,24.60
2012,07,26,14,43,24.60
2012,07,26,14,44,24.60
2012,07,26,14,45,24.60
2012,07,26,14,46,24.50
2012,07,26,14,47,24.50
2012,07,26,14,48,24.60
2012,07,26,14,49,24.70
2012,07,26,14,50,24.90
2012,07,26,14,51,24.90
2012,07,26,14,52,25.00
2012,07,26,14,53,25.00
2012,07,26,14,54,24.90
2012,07,26,14,55,25.00
2012,07,26,14,56,25.10
2012,07,26,14,57,25.10
2012,07,26,14,58,25.00
2012,07,26,14,59,24.90
2012,07,26,15,00,24.90
2012,07,26,15,01,24.90
2012,07,26,15,02,25.00
2012,07,26,15,03,25.00
2012,07,26,15,04,25.10
2012,07,26,15,05,25.30
2012,07,26,15,06,25.30
2012,07,26,15,07,25.40
2012,07,26,15,08,25.60
2012,07,26,15,09,25.80
2012,07,26,15,10,25.80
2012,07,26,15,11,25.60
2012,07,26,15,12,25.40
2012,07,26,15,13,25.50
2012,07,26,15,14,25.50
2012,07,26,15,15,25.50
2012,07,26,15,16,25.40
2012,07,26,15,17,25.50
2012,07,26,15,18,25.50
2012,07,26,15,19,25.40
2012,07,26,15,20,25.30
2012,07,26,15,21,25.30
2012,07,26,15,22,25.30
2012,07,26,15,23,25.30
2012,07,26,15,24,25.40
2012,07,26,15,25,25.50
2012,07,26,15,26,25.70
2012,07,26,15,27,25.80
2012,07,26,15,28,25.70
2012,07,26,15,29,25.70
2012,07,26,15,30,25.80
2012,07,26,15,31,25.90
2012,07,26,15,32,25.90
2012,07,26,15,33,26.00
2012,07,26,15,34,26.10
2012,07,26,15,35,26.20
2012,07,26,15,36,26.30
2012,07,26,15,37,26.40
2012,07,26,15,38,26.50
2012,07,26,15,39,26.50
2012,07,26,15,40,26.50
2012,07,26,15,41,26.50
2012,07,26,15,42,26.50
2012,07,26,15,43,26.40
2012,07,26,15,44,26.50
2012,07,26,15,45,26.60
2012,07,26,15,46,26.50
2012,07,26,15,47,26.40
2012,07,26,15,48,26.40
2012,07,26,15,49,26.20
2012,07,26,15,50,26.10
2012,07,26,15,51,26.10
2012,07,26,15,52,26.20
2012,07,26,15,53,26.30
2012,07,26,15,54,26.40
2012,07,26,15,55,26.60
2012,07,26,15,56,26.60
2012,07,26,15,57,26.60
2012,07,26,15,58,26.60
2012,07,26,15,59,26.60
2012,07,26,16,00,26.60
2012,07,26,16,01,26.70
2012,07,26,16,02,26.80
2012,07,26,16,03,26.80
2012,07,26,16,04,26.70
2012,07,26,16,05,26.80
2012,07,26,16,06,26.90
2012,07,26,16,07,27.00
2012,07,26,16,08,27.10
2012,07,26,16,09,27.10
2012,07,26,16,10,27.10
2012,07,26,16,11,27.10
2012,07,26,16,12,27.10
2012,07,26,16,13,27.20
2012,07,26,16,14,27.30
2012,07,26,16,15,27.30
2012,07,26,16,16,27.30
2012,07,26,16,17,27.20
2012,07,26,16,18,27.20
2012,07,26,16,19,27.30
2012,07,26,16,20,27.40
2012,07,26,16,21,27.50
2012,07,26,16,22,27.40
2012,07,26,16,23,27.40
2012,07,26,16,24,27.30
2012,07,26,16,25,27.20
2012,07,26,16,26,27.20
2012,07,26,16,27,27.20
2012,07,26,16,28,27.20
2012,07,26,16,29,27.20
2012,07,26,16,30,27.10
2012,07,26,16,31,27.10
2012,07,26,16,32,27.20
2012,07,26,16,33,27.10
2012,07,26,16,34,27.00
2012,07,26,16,35,26.90
2012,07,26,16,36,26.90
2012,07,26,16,37,26.80
2012,07,26,16,38,26.80
2012,07,26,16,39,26.70
2012,07,26,16,40,26.70
2012,07,26,16,41,26.70
2012,07,26,16,42,26.80
2012,07,26,16,43,26.80
2012,07,26,16,44,26.90
2012,07,26,16,45,27.00
2012,07,26,16,46,27.10
2012,07,26,16,47,27.10
2012,07,26,16,48,27.20
2012,07,26,16,49,27.20
2012,07,26,16,50,27.20
2012,07,26,16,51,27.20
2012,07,26,16,52,27.30
2012,07,26,16,53,27.30
2012,07,26,16,54,27.30
2012,07,26,16,55,27.30
2012,07,26,16,56,27.30
2012,07,26,16,57,27.20
2012,07,26,16,58,27.20
2012,07,26,16,59,27.20
2012,07,26,17,00,27.20
2012,07,26,17,01,27.30
2012,07,26,17,02,27.40
2012,07,26,17,03,27.30
2012,07,26,17,04,27.20
2012,07,26,17,05,27.20
2012,07,26,17,06,27.10
2012,07,26,17,07,27.00
2012,07,26,17,08,27.00
2012,07,26,17,09,26.90
2012,07,26,17,10,27.00
2012,07,26,17,11,27.10
2012,07,26,17,12,27.20
2012,07,26,17,13,27.20
2012,07,26,17,14,27.30
2012,07,26,17,15,27.30
2012,07,26,17,16,27.30
2012,07,26,17,17,27.20
2012,07,26,17,18,27.30
2012,07,26,17,19,27.30